Wind_Speed
21 16 15 12 11 10 9 8 8 7 6 5 5 5 5 4 4 5 5 6 5 4 4 3 2 2 1 2 3 3 4 5 6 7 8 9 9 7 5 8 10 9 10
19 17 15 13 11 10 9 8 8 7 7 6 5 4 4 4 3 3 3 3 2 3 4 4 2 1 2 2 3 4 4 5 5 7 7 8 7 7 6 8 10 10 10
20 18 16 14 12 11 10 8 8 8 7 7 6 5 4 4 4 3 2 1 1 1 2 2 2 3 2 3 3 4 5 5 5 7 7 8 7 7 6 8 10 10 10
18 17 16 14 12 10 9 9 8 8 8 7 6 5 5 4 3 2 3 2 2 2 2 2 2 2 2 3 4 4 5 5 5 5 6 7 8 8 6 7 10 10 10
17 17 16 13 11 10 10 9 8 8 8 7 7 6 5 5 4 4 3 3 3 3 3 4 4 4 4 3 4 4 5 5 5 5 6 6 6 7 7 6 8 9 10
16 16 15 13 12 11 10 9 8 7 7 6 6 5 5 5 5 6 6 5 5 5 6 6 7 7 6 5 4 4 4 5 5 5 5 6 6 4 6 7 8 9 9
16 16 15 13 12 10 9 8 7 6 5 5 5 5 5 6 6 7 7 7 6 7 8 9 9 8 8 8 7 7 6 6 6 6 5 6 6 6 5 5 6 7 8
16 16 14 14 12 10 8 6 5 4 4 4 5 5 6 6 7 7 7 7 7 7 8 8 9 10 10 9 9 9 9 8 8 8 7 7 7 8 6 5 5 6 7
17 16 16 14 13 11 8 5 4 3 3 3 5 6 6 7 9 8 7 7 7 7 8 8 8 8 9 10 11 11 11 11 10 10 9 9 9 9 9 7 7 7 7
20 19 17 15 12 9 7 5 4 4 4 3 3 4 5 6 8 9 9 9 9 8 9 8 8 8 8 8 11 9 11 12 11 11 11 11 10 10 11 11 10 8 7
24 21 18 16 13 10 7 7 7 6 5 5 4 3 2 2 3 5 5 6 7 8 9 10 11 11 11 11 11 13 11 11 10 10 11 12 13 13 12 12 13 11 8
27 23 20 17 14 11 10 10 9 8 5 5 5 3 2 1 1 2 3 4 5 7 8 9 11 12 13 14 15 16 15 14 12 12 11 12 13 14 15 13 12 13 12
27 24 22 19 16 14 14 12 10 9 7 5 4 3 2 1 1 1 2 3 4 5 7 8 9 10 11 12 13 14 15 16 16 16 15 13 12 12 14 15 13 14 14
30 26 24 21 18 18 17 16 12 8 6 5 4 2 2 2 3 3 3 3 4 5 6 7 7 8 9 10 11 11 13 14 14 17 19 18 16 13 14 15 16 15 15
30 27 24 22 20 20 18 16 13 11 7 4 3 2 2 3 3 4 5 6 6 7 6 7 7 8 8 9 9 9 10 11 13 14 15 19 21 20 19 18 19 19 18
32 30 26 25 24 22 19 16 12 10 8 5 2 1 2 3 4 5 5 6 7 8 10 10 10 10 10 10 10 10 10 10 11 12 12 15 19 22 24 24 22 22 20
35 30 28 26 25 23 21 17 13 11 8 5 3 1 1 3 4 5 6 6 8 10 11 11 11 11 11 11 11 11 11 11 10 9 8 9 12 17 21 26 28 26 23
36 34 30 28 26 24 21 18 15 13 9 6 4 3 1 2 3 4 5 7 9 10 12 13 13 14 14 14 13 11 10 8 7 6 7 7 8 9 12 15 20 24 25
38 35 32 29 27 26 24 20 17 13 10 7 5 3 1 2 3 4 6 8 10 11 12 15 16 17 17 16 15 12 8 6 4 5 6 7 7 8 9 9 11 15 20
38 35 32 30 28 27 26 23 19 16 13 9 7 4 1 0 2 4 6 8 9 12 14 16 18 19 19 18 16 11 6 4 2 5 7 8 9 9 10 11 11 12 14
39 38 35 33 31 31 29 27 24 20 16 12 7 4 2 0 2 4 6 8 10 13 16 17 17 18 17 18 16 11 6 5 3 12 11 9 11 15 16 16 16 14 14
42 42 38 34 32 31 28 25 23 21 17 12 10 7 4 1 1 3 5 7 10 12 14 16 18 18 19 18 17 12 6 4 1 15 6 19 18 21 20 18 17 16 16
46 46 40 35 31 28 27 26 25 22 18 15 12 8 5 2 2 4 6 9 11 13 15 16 17 17 17 17 16 12 5 4 22 3 15 21 20 26 23 22 21 17 16
47 46 40 35 31 29 29 28 26 24 21 17 13 10 6 3 2 4 7 10 12 14 14 15 14 14 15 16 14 14 9 7 6 13 21 23 28 26 26 26 22 22 20
47 45 39 34 32 30 30 27 25 23 19 17 13 9 6 3 3 5 8 11 13 14 14 13 13 14 15 15 16 14 13 11 1 11 15 34 32 30 29 24 23 24 25
41 41 37 34 32 30 28 26 24 23 22 19 14 11 7 4 3 6 8 10 12 13 13 13 12 12 13 13 13 13 14 13 15 12 13 20 25 31 28 24 25 29 27
Wind_Direction
186 184 183 181 178 182 179 174 169 161 161 156 149 139 127 112 98 84 79 76 76 76 74 77 85 75 43 2 356 353 343 338 337 333 331 331 335 337 326 354 360 357 354
184 182 184 180 180 181 179 171 171 166 167 172 170 166 146 134 132 122 94 73 62 60 51 36 31 38 10 344 339 336 333 338 341 335 335 336 338 342 337 354 358 358 359
175 177 184 180 182 183 180 178 178 179 179 184 185 187 179 171 162 156 146 162 95 1 11 8 24 19 357 349 343 334 332 338 339 336 335 338 338 342 337 357 2 1 360
173 177 179 180 181 182 184 189 187 185 187 190 193 195 198 209 215 201 195 200 211 234 257 302 299 307 317 340 347 340 335 340 339 334 333 334 336 342 338 354 3 359 1
178 179 176 174 178 184 188 190 192 193 195 199 206 211 216 228 244 246 249 244 239 240 250 261 270 273 288 313 329 329 324 331 331 328 327 331 335 342 345 342 355 357 1
179 174 173 173 184 188 192 193 198 199 202 208 215 231 244 253 262 267 272 276 271 264 258 254 254 258 259 264 275 285 292 302 308 309 312 315 316 323 339 331 343 351 355
179 175 174 178 185 188 192 194 191 194 202 215 226 239 259 265 267 274 278 281 285 283 272 269 272 273 268 260 258 261 269 272 276 285 285 294 296 299 317 321 334 341 344
184 178 181 183 186 191 192 188 191 198 214 227 239 249 252 258 259 263 272 278 282 285 288 285 281 277 271 268 265 265 264 267 268 271 274 277 283 285 289 281 306 317 330
184 186 184 183 183 182 177 172 184 196 214 216 247 255 251 256 261 262 266 273 274 276 279 282 279 275 276 277 275 271 270 268 271 271 272 273 275 282 282 279 280 292 309
187 188 186 183 183 185 181 179 189 197 195 179 211 241 249 255 260 264 266 267 269 272 276 277 278 277 274 277 281 274 270 270 269 267 266 263 266 277 282 273 269 284 288
189 186 184 186 187 189 184 178 172 173 165 151 144 157 198 236 261 271 273 275 279 281 281 281 280 276 275 274 270 282 283 275 273 273 262 256 261 268 279 271 264 270 280
190 187 189 191 191 190 180 177 173 168 162 146 134 131 149 186 243 289 292 292 295 293 293 293 292 289 285 278 274 275 275 271 267 264 256 258 273 275 273 259 262 263 267
192 194 196 195 191 186 180 179 178 172 164 149 127 126 126 29 25 356 331 326 319 317 312 309 304 299 297 294 290 287 281 271 260 257 256 259 265 268 262 261 268 268 268
198 198 199 195 193 188 185 184 181 179 165 156 143 116 72 28 17 3 353 358 352 348 346 343 335 329 326 320 311 305 296 288 278 262 255 257 258 263 255 259 268 271 263
205 203 200 198 194 195 193 190 185 179 176 158 123 98 60 27 21 21 8 5 2 1 359 3 358 350 345 337 327 321 312 302 292 281 268 256 253 254 261 256 260 270 277
208 206 202 200 196 197 199 199 190 184 187 187 161 102 54 30 27 24 17 11 8 8 9 11 11 7 3 358 346 336 325 314 304 294 282 266 257 254 257 262 265 265 273
208 206 205 202 199 200 203 202 195 191 187 190 178 142 43 31 28 25 18 16 14 16 15 17 12 11 8 8 1 351 341 329 316 309 299 280 263 258 256 253 257 266 268
209 208 205 203 201 202 205 202 198 193 193 187 165 145 122 60 48 35 28 26 25 19 12 9 9 5 4 3 5 359 349 341 329 323 325 314 297 279 267 265 261 258 261
211 208 206 203 202 203 203 201 200 196 195 189 182 173 105 50 39 30 29 30 26 16 7 5 2 359 358 0 0 358 353 346 336 353 350 346 343 323 307 288 279 271 264
211 209 208 204 202 202 201 199 197 198 199 197 199 193 171 50 29 31 29 27 18 10 4 3 0 356 357 2 7 7 21 2 311 354 345 341 336 332 324 311 293 277 274
210 208 207 203 201 203 202 200 198 198 193 194 191 186 182 172 20 16 15 12 8 4 3 360 358 356 354 358 359 20 20 14 167 348 329 330 334 338 334 323 313 295 280
211 207 204 203 204 205 209 205 201 195 187 191 188 192 199 226 346 2 7 6 6 3 0 357 357 359 360 5 11 10 2 343 210 321 353 333 334 337 337 335 332 322 302
210 207 204 202 202 202 201 197 192 191 190 188 190 199 202 226 328 350 358 0 360 358 358 358 358 1 5 8 13 28 25 341 329 264 314 332 343 341 344 343 341 336 325
210 204 200 197 197 197 200 203 205 202 196 191 194 199 208 233 287 334 349 354 355 358 358 1 2 3 5 10 16 27 32 350 345 319 320 338 337 341 341 341 339 339 334
209 198 194 193 193 194 197 203 204 200 196 192 191 200 208 226 298 334 346 351 355 359 2 3 1 3 7 11 17 15 8 21 248 319 314 328 332 340 339 336 339 333 329
198 190 188 186 186 191 194 198 205 203 195 189 191 200 207 227 291 328 341 348 357 358 1 359 357 3 10 11 10 6 1 355 335 335 318 325 325 332 337 336 334 333 329
Height
1502 1505 1507 1510 1512 1513 1514 1515 1515 1516 1517 1518 1519 1520 1521 1522 1522 1523 1524 1524 1525 1527 1526 1526 1526 1526 1527 1528 1527 1527 1526 1526 1527 1526 1525 1525 1524 1523 1523 1521 1520 1520 1518
1501 1504 1507 1510 1512 1513 1514 1514 1515 1515 1516 1518 1519 1520 1521 1521 1522 1523 1524 1524 1525 1526 1526 1527 1526 1526 1527 1527 1527 1526 1526 1526 1525 1525 1525 1524 1523 1523 1522 1521 1520 1519 1518
1500 1503 1506 1508 1511 1512 1513 1513 1514 1515 1516 1517 1518 1519 1519 1520 1521 1522 1522 1523 1524 1525 1526 1527 1526 1526 1526 1526 1526 1526 1525 1525 1525 1524 1524 1523 1523 1522 1522 1521 1520 1519 1518
1500 1503 1506 1508 1510 1512 1512 1513 1514 1514 1515 1516 1518 1518 1518 1520 1520 1521 1520 1521 1522 1523 1524 1526 1525 1525 1525 1525 1525 1525 1525 1524 1524 1524 1523 1523 1522 1522 1521 1521 1520 1519 1518
1500 1503 1506 1508 1509 1511 1512 1512 1513 1513 1514 1515 1517 1518 1518 1519 1520 1520 1519 1519 1521 1522 1523 1524 1523 1523 1524 1524 1524 1524 1524 1523 1523 1523 1522 1522 1522 1522 1521 1521 1520 1519 1518
1500 1503 1506 1507 1509 1510 1510 1511 1512 1513 1514 1515 1516 1517 1518 1519 1519 1519 1519 1519 1520 1520 1521 1522 1522 1522 1522 1522 1522 1522 1522 1522 1522 1522 1522 1521 1521 1520 1521 1521 1520 1519 1518
1500 1503 1505 1507 1508 1509 1510 1510 1511 1512 1513 1515 1516 1516 1517 1518 1518 1519 1518 1518 1518 1519 1520 1521 1520 1521 1521 1521 1521 1521 1521 1520 1520 1520 1520 1520 1519 1520 1519 1520 1520 1519 1518
1500 1502 1504 1506 1507 1509 1509 1510 1511 1511 1513 1514 1515 1515 1516 1517 1517 1517 1517 1517 1517 1517 1518 1519 1519 1519 1519 1519 1519 1519 1519 1519 1519 1519 1519 1519 1518 1518 1518 1518 1518 1518 1518
1500 1502 1504 1506 1507 1508 1508 1509 1511 1511 1513 1512 1514 1515 1515 1516 1517 1516 1515 1516 1515 1515 1516 1516 1517 1517 1517 1517 1517 1517 1517 1517 1518 1518 1518 1518 1517 1516 1517 1517 1517 1517 1517
1498 1500 1502 1504 1506 1507 1508 1509 1510 1511 1512 1511 1512 1514 1514 1514 1516 1515 1514 1514 1514 1513 1514 1516 1516 1515 1515 1514 1514 1514 1514 1515 1515 1516 1516 1515 1515 1515 1515 1515 1516 1516 1516
1496 1498 1500 1502 1504 1506 1508 1508 1510 1511 1511 1511 1511 1512 1513 1513 1514 1514 1513 1513 1513 1512 1513 1513 1514 1514 1513 1512 1512 1511 1511 1512 1513 1513 1513 1513 1513 1513 1513 1513 1513 1514 1514
1491 1495 1498 1500 1502 1505 1507 1509 1509 1510 1513 1512 1511 1512 1513 1513 1513 1513 1512 1512 1511 1511 1510 1511 1511 1511 1511 1510 1509 1509 1507 1508 1509 1510 1510 1511 1511 1511 1511 1510 1511 1512 1512
1490 1493 1496 1499 1500 1502 1504 1508 1511 1510 1511 1513 1512 1512 1512 1513 1512 1512 1512 1511 1510 1510 1509 1509 1508 1508 1508 1508 1507 1506 1505 1504 1505 1506 1507 1507 1508 1508 1508 1508 1509 1509 1510
1487 1491 1494 1497 1500 1501 1502 1504 1506 1511 1511 1511 1511 1512 1511 1512 1512 1511 1511 1510 1510 1509 1508 1508 1507 1506 1505 1504 1505 1503 1503 1502 1502 1502 1503 1504 1505 1505 1504 1505 1506 1506 1506
1486 1489 1493 1496 1499 1501 1502 1504 1505 1506 1510 1511 1511 1510 1510 1510 1510 1510 1510 1509 1508 1508 1507 1506 1506 1505 1504 1502 1501 1500 1500 1499 1499 1499 1499 1499 1500 1501 1501 1501 1501 1503 1504
1484 1487 1491 1494 1496 1499 1502 1504 1504 1506 1508 1509 1510 1509 1509 1509 1509 1509 1508 1507 1507 1507 1506 1505 1504 1504 1503 1501 1500 1498 1497 1496 1495 1495 1495 1495 1496 1497 1497 1498 1498 1498 1499
1480 1485 1488 1492 1495 1498 1500 1502 1503 1505 1507 1508 1508 1508 1508 1508 1508 1508 1508 1506 1506 1506 1505 1503 1503 1502 1502 1500 1498 1497 1495 1494 1492 1492 1491 1491 1491 1492 1492 1493 1494 1494 1495
1477 1480 1484 1489 1493 1496 1499 1501 1502 1502 1505 1506 1507 1506 1506 1506 1506 1506 1506 1505 1504 1505 1505 1503 1503 1501 1499 1498 1496 1494 1493 1491 1490 1489 1489 1488 1488 1488 1488 1488 1489 1489 1490
1473 1477 1481 1486 1490 1493 1495 1498 1499 1501 1502 1503 1505 1505 1505 1506 1505 1504 1504 1503 1503 1503 1502 1500 1499 1498 1497 1496 1493 1491 1491 1490 1488 1488 1487 1488 1488 1487 1486 1486 1486 1486 1486
1470 1475 1479 1483 1487 1490 1492 1493 1495 1498 1499 1500 1501 1502 1502 1503 1504 1503 1503 1502 1502 1501 1500 1498 1496 1494 1493 1493 1492 1489 1487 1487 1487 1486 1487 1486 1487 1485 1484 1483 1483 1482 1482
1465 1470 1475 1478 1482 1485 1487 1488 1490 1493 1496 1498 1500 1502 1502 1502 1502 1503 1502 1502 1500 1499 1498 1497 1495 1492 1490 1489 1489 1487 1487 1485 1484 1485 1485 1484 1484 1483 1481 1480 1479 1478 1478
1458 1463 1469 1475 1478 1482 1486 1487 1489 1491 1493 1496 1497 1499 1500 1501 1500 1500 1500 1499 1499 1498 1496 1495 1493 1490 1487 1486 1485 1483 1483 1486 1485 1482 1483 1481 1481 1480 1478 1477 1474 1473 1472
1451 1457 1463 1470 1475 1480 1483 1485 1486 1488 1491 1493 1496 1497 1498 1499 1500 1500 1499 1498 1497 1495 1493 1492 1490 1489 1486 1485 1483 1484 1482 1483 1481 1481 1481 1479 1478 1475 1474 1473 1472 1469 1468
1445 1453 1460 1466 1470 1476 1479 1482 1483 1484 1487 1490 1492 1493 1495 1497 1497 1498 1498 1497 1496 1494 1492 1490 1489 1486 1486 1484 1483 1482 1483 1482 1482 1477 1475 1473 1473 1471 1470 1468 1467 1465 1463
1440 1448 1456 1461 1466 1470 1474 1477 1480 1482 1486 1489 1491 1494 1494 1494 1495 1495 1495 1495 1493 1492 1490 1488 1486 1485 1483 1483 1482 1481 1481 1482 1481 1480 1474 1468 1467 1467 1466 1464 1463 1461 1458
1440 1447 1452 1458 1462 1469 1473 1475 1477 1480 1482 1484 1488 1491 1492 1491 1492 1493 1492 1492 1491 1490 1490 1487 1486 1483 1483 1483 1482 1481 1479 1480 1479 1477 1473 1470 1467 1463 1460 1459 1459 1457 1454